• Join FlightAware (Why Join?)
  • Login
  • US Flag GB Flag 
07:50 EDT


 

Airport Tracker/Info


-or-


 

Live Flight TrackerFlight Track Log ✈ VNR164 ✈ 09-Jun-2013 ✈ KDAB - KPBI

Flight Track Log - Related Links

Times and Time Zones

All times are in EDT time to prevent confusion due to time zone crossing. See the VNR164 flight status page for this flight to view local times or setup timezone preferences in your user account.

Time Position Orientation Groundspeed Altitude Reporting Facility
EDT Latitude Longitude Course Direction KTS MPH feet Rate Location/Type
07:33 28.6833 -81.0833 164° South 256 295 3,500  Level Orlando TRACON
07:34 28.6333 -81.0667 164° South 254 292 3,500  Level Orlando TRACON
07:35 28.5667 -81.0333 156° South 256 295 3,500  Level Orlando TRACON
07:36 28.4833 -80.9833 152° Southeast 260 299 3,500  Level Orlando TRACON
07:37 28.4167 -80.9500 156° South 261 300 3,500  Level Orlando TRACON
07:38 28.3667 -80.9333 164° South 260 299 3,500  Level Orlando TRACON
07:39 28.2667 -80.8833 156° South 260 299 3,500  Level Orlando TRACON
07:40 28.2333 -80.8667 156° South 260 299 3,500  Level Orlando TRACON
07:41 28.1500 -80.8167 152° Southeast 257 296 3,500  Level Orlando TRACON
07:43 28.0531 -80.7739 159° South 271 312 3,500  Level Miami Center
07:44 27.9894 -80.7411 156° South 265 305 3,500  Level Miami Center
07:45 27.9236 -80.7061 155° Southeast 259 298 3,500  Level Miami Center
07:46 27.8636 -80.6783 158° South 259 298 3,500  Level Miami Center
07:47 27.8000 -80.6456 155° Southeast 254 292 3,500  Level Miami Center
07:48 27.7278 -80.6103 157° South 254 292 3,500  Level Miami Center
07:49 27.6639 -80.5753 154° Southeast 254 292 3,500  Level Miami Center
07:50 27.5981 -80.5453 158° South 254 292 3,500  Level Miami Center
07:51 27.5403 -80.5153 155° Southeast 254 292 3,500  Level Miami Center
07:52 27.4742 -80.4850 158° South 254 292 3,500  Level Miami Center
07:53 27.4019 -80.4522 158° South 249 287 3,600  Climbing Miami Center
07:54 27.3358 -80.4222 158° South 249 287 3,600  Level Miami Center
07:55 27.2678 -80.3944 160° South 254 292 3,600  Level Miami Center
07:56 27.2097 -80.3692 159° South 254 292 3,600  Level Miami Center
07:57 27.1356 -80.3367 159° South 254 292 3,600  Level Miami Center
07:58 27.0694 -80.3067 158° South 254 292 3,600 -60 Level Miami Center
07:59 27.0033 -80.2767 158° South 249 287 3,500 -60 Descending Miami Center
08:00 26.9453 -80.2542 161° South 249 287 3,500  Level Miami Center
08:01 26.8792 -80.2242 158° South 249 287 3,500  Level Miami Center
08:03 26.7877 -80.1641 160° South  Level Estimated
08:10 26.6832 -80.0956 160° South  Level Estimated
08:11 26.6832 -80.0956 160° South  Level Estimated
08:12 26.6832 -80.0956 160° South  Level Estimated
08:13 26.6832 -80.0956 160° South  Level Estimated
08:14 26.6832 -80.0956 160° South  Level Estimated